Probability
0 0 1 2 4 3 2 2 1 0 1 1 1 0 0 1 3 5 5 5 4 2 1 0 0 1 1 0 0 0 0 0 0 0 0 0 0 0 0 1 1 1 1
0 0 1 2 4 4 3 2 1 1 0 0 0 0 0 0 2 4 4 3 2 1 0 0 1 2 2 1 0 0 0 0 0 0 0 0 0 0 0 0 1 2 3
0 0 1 2 3 4 4 2 2 1 1 1 0 0 1 1 1 2 2 1 0 0 0 0 1 2 2 1 0 0 0 0 0 0 0 0 0 0 0 1 2 3 5
0 0 1 2 3 4 4 2 2 2 2 2 1 1 2 2 1 1 2 1 1 1 0 0 1 2 2 1 0 0 0 0 0 0 0 0 0 0 0 1 2 4 4
0 0 1 3 4 4 4 2 1 1 2 2 2 3 3 2 2 3 3 3 3 3 2 1 1 1 1 1 1 0 0 0 0 0 0 0 0 0 0 1 1 3 3
0 0 2 5 6 6 5 4 3 2 2 2 3 4 2 1 2 3 3 3 3 3 3 3 3 3 2 2 2 2 1 1 0 0 0 0 0 0 0 1 1 2 2
0 0 2 6 7 7 7 6 5 4 4 4 4 4 3 2 2 2 2 3 3 3 3 4 5 4 4 3 4 4 4 2 0 0 0 0 0 0 0 1 2 1 1
0 0 2 5 7 7 7 7 5 4 5 6 5 5 4 4 4 4 3 3 3 3 5 6 7 6 5 4 4 6 5 3 1 0 0 0 0 1 1 1 1 1 0
0 0 1 2 4 5 5 4 3 4 5 6 6 5 5 6 6 5 5 4 3 4 7 10 10 9 7 6 7 8 7 4 1 0 0 0 2 3 3 1 1 1 0
0 0 0 0 1 1 1 1 1 2 4 5 5 5 5 5 4 4 5 5 6 7 10 12 13 13 13 12 13 12 9 4 1 0 0 1 3 5 5 3 2 2 1
0 0 0 0 0 0 0 0 0 1 3 4 5 5 3 2 1 2 3 7 10 11 13 14 14 15 16 16 15 13 9 4 2 1 0 1 4 5 5 3 2 2 2
0 0 0 0 0 0 0 0 0 1 1 2 4 4 2 1 0 0 2 6 9 11 12 13 13 13 14 13 12 10 7 5 4 2 2 3 6 7 6 4 2 2 3
0 0 1 0 0 0 0 0 1 1 0 0 2 3 3 2 1 0 1 2 4 5 6 8 9 9 8 8 8 7 5 5 5 4 3 6 9 10 8 6 4 4 4
0 1 1 1 0 0 0 0 1 0 0 0 1 1 2 2 1 1 1 1 1 2 3 4 5 5 5 5 6 5 4 4 5 4 4 7 10 11 9 7 5 6 6
1 2 3 2 1 0 1 1 1 0 0 1 1 1 1 1 1 1 2 2 2 3 3 3 4 4 4 4 5 4 3 3 4 3 4 7 9 10 9 7 6 7 7
2 3 4 4 2 1 2 3 2 1 1 1 2 1 0 1 2 3 3 3 3 3 3 3 3 3 3 3 3 3 3 3 3 3 4 5 7 9 9 8 7 7 7
1 2 3 3 2 2 3 4 4 2 1 1 1 0 0 1 2 3 3 3 3 3 3 3 3 3 3 3 2 3 3 3 3 4 4 5 7 8 9 10 9 8 6
1 2 4 4 4 4 4 4 3 1 0 0 0 1 1 2 2 2 2 3 3 3 3 3 3 3 3 2 1 2 3 4 4 5 6 6 6 7 8 10 11 9 6
2 3 5 6 6 6 5 4 2 1 1 1 1 2 3 3 2 1 1 3 3 3 3 3 3 3 3 2 1 1 2 4 5 6 6 6 6 6 7 8 10 9 6
3 3 4 5 7 7 6 5 3 2 2 2 3 3 3 4 3 2 1 3 3 3 3 3 3 3 4 3 1 1 2 3 4 4 5 5 6 7 7 7 7 7 6
4 4 5 6 8 8 8 7 5 4 4 4 3 3 3 4 4 3 3 3 3 3 3 3 3 4 4 3 1 1 1 1 1 2 2 3 4 6 7 7 6 5 5
6 6 8 11 10 9 9 8 7 6 6 5 4 3 4 5 5 4 3 3 3 3 3 3 3 3 3 2 1 1 1 1 1 1 1 1 1 3 6 8 7 6 5
9 8 10 13 13 11 10 9 8 8 7 6 5 4 4 5 4 3 3 4 4 4 4 4 3 2 2 2 2 2 2 2 2 2 1 1 0 0 2 5 7 6 6
11 10 11 14 15 13 12 12 10 8 7 6 5 5 5 4 2 1 2 4 5 5 5 4 3 2 2 3 3 3 3 4 4 4 3 2 1 0 0 2 4 5 5
14 13 14 16 17 16 16 15 12 8 6 6 6 6 5 2 0 0 1 3 4 4 4 4 3 4 5 4 4 4 4 5 4 5 4 2 1 0 0 0 1 2 3
15 16 16 18 19 18 17 16 12 7 5 6 6 6 4 1 0 1 2 3 3 3 3 3 4 6 6 6 5 4 5 5 4 4 2 1 0 0 0 0 0 1 1
Wind_Speed
3 3 8 10 10 11 11 11 11 12 12 12 12 12 12 13 13 13 13 13 13 13 12 12 12 11 11 11 11 11 11 11 10 10 10 10 10 9 10 10 10 7 10
6 5 9 10 11 11 11 11 11 12 12 12 11 12 12 12 13 13 12 12 12 12 12 11 11 11 11 10 10 10 10 9 9 9 9 8 9 9 9 9 9 6 10
7 5 8 10 11 11 11 11 11 11 11 12 11 11 12 12 12 12 12 11 11 11 11 11 11 11 10 10 10 9 9 9 9 8 7 4 5 8 9 9 9 9 9
8 6 7 11 11 10 10 10 10 11 11 11 11 11 11 11 11 11 11 10 10 10 9 9 10 10 9 9 9 8 8 8 8 7 4 3 4 9 9 9 9 9 9
7 5 7 12 11 10 10 10 10 10 11 11 11 10 10 10 10 10 10 9 9 9 8 8 8 9 9 8 8 7 8 8 8 6 3 4 4 8 10 10 10 9 9
6 5 7 11 11 11 10 10 10 11 11 11 10 10 9 9 9 9 8 8 8 8 8 8 7 7 8 8 7 7 7 7 6 3 3 4 4 8 10 11 10 10 9
6 5 6 11 11 11 10 10 11 11 11 10 10 9 9 8 8 8 7 7 7 7 7 7 7 7 7 7 7 7 7 8 4 3 3 4 6 10 10 11 11 10 10
8 5 5 10 11 11 10 10 10 10 10 10 10 9 8 8 7 7 6 6 7 7 7 7 7 7 7 7 6 6 7 7 5 5 4 4 8 10 11 11 10 10 10
7 6 4 4 7 9 10 10 10 10 10 10 9 8 8 7 6 6 6 6 6 7 8 8 7 7 7 6 6 5 6 7 3 3 5 4 8 11 11 11 11 11 10
6 5 4 4 4 4 5 9 10 10 10 9 9 8 8 7 6 6 6 6 6 7 7 8 8 8 7 7 7 6 6 5 3 3 3 5 9 10 11 11 12 12 11
5 4 4 4 4 4 4 6 8 9 9 8 7 8 6 3 3 3 5 6 6 7 7 7 8 8 7 7 8 8 6 2 3 3 3 7 9 10 10 11 11 12 12
5 5 5 5 5 4 4 3 2 3 3 3 3 3 2 2 2 4 5 6 6 6 7 7 7 7 6 3 5 6 2 3 3 3 4 9 10 10 10 11 12 12 12
6 5 5 5 6 5 3 3 2 2 2 2 3 3 2 2 1 2 1 2 2 3 3 4 4 3 2 2 2 2 2 2 2 3 4 10 10 10 11 11 11 12 12
5 5 5 5 5 4 3 3 3 2 2 2 2 3 2 2 1 1 1 1 1 1 1 1 2 2 2 3 3 3 3 3 2 2 4 10 10 11 12 12 12 12 11
5 4 4 4 4 4 3 3 3 3 3 2 2 2 3 3 2 2 2 2 2 1 2 2 2 2 2 3 3 4 4 4 4 4 3 9 10 11 12 12 12 12 12
6 5 4 5 4 4 3 3 3 2 2 2 2 2 2 2 2 2 2 2 2 2 2 2 2 2 2 2 3 4 4 4 4 4 4 6 10 11 11 12 12 12 12
6 5 5 5 5 4 4 3 3 2 3 2 2 2 2 2 2 2 2 2 2 1 1 1 1 1 1 1 2 3 3 3 4 5 5 4 5 9 11 12 12 12 12
6 6 5 5 5 4 4 3 2 2 3 2 2 2 2 2 2 2 2 1 1 1 1 1 1 1 1 1 1 2 2 3 4 4 4 4 4 4 8 11 12 12 12
7 7 6 5 5 4 4 3 3 2 2 2 2 2 2 2 2 2 1 1 1 1 1 1 1 1 1 1 2 2 2 2 3 4 4 5 5 4 4 8 11 11 11
7 7 6 5 5 4 3 3 2 2 1 1 2 2 2 2 2 2 1 1 1 1 0 0 1 0 1 1 1 2 2 2 2 2 3 3 4 5 4 5 5 7 10
6 7 6 6 5 4 2 2 2 2 2 1 2 2 3 2 2 2 1 1 1 1 1 1 1 0 1 0 1 2 2 2 1 2 2 2 3 4 4 5 4 3 4
8 7 6 6 5 4 3 3 2 2 2 2 1 1 2 2 2 2 2 1 1 1 1 1 1 0 1 0 1 1 2 3 2 2 1 2 3 2 3 5 4 5 4
8 8 8 7 6 5 4 3 2 2 1 1 1 1 1 2 2 1 2 1 1 2 1 1 1 1 1 1 1 2 1 1 3 2 2 1 2 2 3 3 4 5 6
9 7 6 6 6 5 5 4 4 4 3 3 2 1 1 1 1 2 2 2 2 1 1 1 2 1 2 1 1 0 2 2 1 2 3 2 3 3 3 3 3 5 5
8 7 6 6 5 5 5 5 5 3 2 2 1 2 1 0 1 1 1 2 2 1 2 2 1 1 1 2 1 1 0 0 1 1 2 3 3 3 3 3 3 3 3
8 7 7 6 5 5 5 5 5 5 4 3 2 2 1 0 0 0 1 1 1 1 1 2 2 2 1 1 1 1 1 1 1 1 2 2 3 3 3 2 2 2 3
Wind_Direction
166 171 138 128 121 117 116 113 109 108 109 111 113 114 115 117 119 122 127 130 133 137 140 143 145 145 146 147 145 144 145 143 144 144 145 144 140 139 136 137 135 131 132
158 161 139 133 127 123 121 118 114 113 111 112 114 116 119 122 123 123 126 132 136 140 143 145 148 148 151 152 151 149 148 147 148 149 150 148 148 147 145 142 142 140 140
144 148 141 135 129 126 125 124 120 119 119 119 120 119 123 126 128 128 128 132 140 144 147 150 152 154 156 158 157 156 156 154 156 157 158 156 158 156 153 149 146 144 147
142 141 140 137 132 130 129 129 127 124 125 125 125 125 126 128 129 131 133 134 139 145 149 152 157 159 161 160 160 162 164 167 165 166 166 168 172 165 159 154 151 151 152
133 139 144 139 136 133 132 133 131 130 129 130 130 130 130 132 134 134 136 139 143 147 150 152 158 163 165 164 165 170 173 176 173 175 176 180 178 173 167 165 164 163 164
132 139 146 141 139 135 131 133 133 134 134 134 134 134 135 137 140 141 143 145 149 154 155 156 161 170 172 172 175 178 179 184 184 182 177 172 176 180 178 176 175 174 173
137 143 147 143 141 138 135 133 136 137 139 139 139 139 140 142 146 150 153 156 160 165 166 167 171 172 176 180 185 187 187 193 190 181 182 182 187 187 186 185 183 182 182
140 145 142 143 143 142 140 139 139 141 144 145 145 146 147 148 151 158 163 169 173 174 175 175 179 181 186 189 192 197 199 202 199 196 193 191 189 191 192 194 191 190 189
138 139 140 146 147 146 145 146 144 145 149 152 152 154 156 159 162 166 173 181 187 190 191 188 187 190 195 200 205 209 204 206 193 190 194 193 196 198 201 198 194 194 193
140 143 144 148 147 150 149 151 155 157 158 161 163 166 170 174 178 181 186 190 194 199 201 197 197 202 204 207 214 216 212 210 193 194 196 198 201 203 204 202 199 200 199
146 159 155 159 164 162 161 166 166 167 170 172 175 177 181 185 189 195 202 201 202 205 206 201 203 208 213 217 222 221 218 213 185 202 202 204 205 206 206 205 205 205 204
160 168 167 169 175 178 176 166 174 177 175 178 181 182 179 185 205 205 207 210 210 206 205 208 211 214 217 220 227 224 213 199 194 207 207 206 206 208 209 210 209 207 208
168 168 169 172 173 179 177 163 176 178 174 184 188 185 177 177 203 216 201 224 218 207 209 211 217 223 220 216 213 211 210 207 202 211 210 208 209 215 215 213 212 212 213
157 165 167 161 159 168 162 166 167 167 170 184 189 176 165 167 176 181 189 207 203 199 194 198 210 226 230 225 213 213 216 211 202 208 213 209 210 215 215 215 214 213 215
154 161 163 152 150 155 152 166 156 167 168 173 168 173 166 165 173 181 197 192 195 189 187 192 212 216 224 232 221 212 214 215 203 206 219 214 214 214 214 214 213 213 214
161 163 160 155 152 147 144 151 150 152 150 142 160 173 164 163 169 175 177 178 195 197 191 192 207 205 227 231 227 219 217 211 201 204 214 219 218 217 217 218 218 215 215
162 157 159 157 149 145 144 150 141 149 145 156 168 162 151 148 154 161 167 185 204 193 174 165 175 174 225 240 240 232 221 210 203 206 214 218 222 223 221 221 219 219 220
156 151 162 152 144 145 138 136 136 146 145 157 165 158 154 148 145 149 154 192 197 160 151 159 166 187 236 246 256 246 229 215 217 215 214 217 215 221 223 222 222 224 226
158 153 152 144 146 150 146 140 137 140 140 148 153 148 150 139 147 141 142 176 154 133 154 192 163 185 213 246 257 258 243 224 225 224 219 218 216 220 223 226 226 226 230
157 152 152 148 151 145 135 115 102 112 131 142 154 157 156 154 151 145 150 164 141 128 138 184 183 212 214 222 257 280 271 247 234 228 222 218 221 220 219 227 228 230 230
157 154 155 154 159 144 134 138 137 158 166 170 180 170 162 164 162 153 155 160 149 156 193 188 162 222 317 97 43 331 315 288 254 243 235 226 231 227 217 219 214 221 231
170 166 162 165 166 163 163 162 160 158 170 171 172 170 177 175 179 168 164 165 166 158 166 172 135 142 285 101 125 44 341 339 324 276 253 235 246 238 227 222 213 211 222
177 177 173 173 170 171 163 138 116 94 79 90 130 182 202 181 172 157 148 147 153 152 178 201 180 176 229 295 134 143 143 266 307 314 296 275 271 256 241 229 221 220 222
186 179 171 170 171 172 159 153 153 154 167 192 184 186 189 163 148 141 139 133 144 154 178 207 176 186 175 227 299 215 193 186 196 304 314 299 285 272 263 254 238 231 229
179 171 169 165 168 166 162 162 158 160 173 171 150 143 161 177 159 150 140 138 155 172 191 202 196 199 189 190 206 243 282 257 198 191 276 301 304 280 267 257 246 242 237
173 169 169 168 172 169 167 163 161 163 159 146 152 163 182 209 251 223 145 150 170 187 200 206 202 199 201 190 203 206 199 213 237 210 235 266 284 287 281 270 267 253 245